Terminal Aerodrome Forecast
Issued by NWS Flagstaff, AZ

Home | Current Version | Previous Version | Text Only | Print | Product List | Glossary On
Versions: 1 2 3 4 5 6 7 8 9 10 11 12 13 14 15 16 17
000
FTUS45 KFGZ 211100
TAFFLG
TAF
KFLG 211128Z 2112/2212 VRB05KT P6SM FEW080
     FM211900 20009G16KT P6SM BKN080
     FM220200 VRB03KT P6SM FEW080 FEW250=

USA.gov is the U.S. government's official web portal to all federal, state and local government web resources and services.